Theta_e
323 324 329 339 339 340 339 339 337 336 335 334 333 333 330 332 328 330 329 329 329 329 329 329 329 328 329 329 328 327 329 328 329 329 328 327 328 329 330 329 330 330 332 332 331 331 331 332 335 337 335 335 335 331 332 331 331 331 330 330 330 331 332 332 332 332 333 333 335 336 337 338 338 337 336 335 336 336 334 334 334 331 331 332 337
319 325 328 334 340 339 339 338 337 337 335 334 334 333 332 331 330 329 328 331 329 329 328 329 329 329 329 327 327 329 328 328 327 327 327 327 328 329 329 329 329 330 331 330 331 331 331 333 336 335 334 335 334 330 331 332 330 330 331 331 331 331 332 332 332 333 333 333 334 336 336 337 337 337 337 337 336 335 334 333 333 330 328 334 337
321 325 329 333 340 338 339 338 338 337 335 334 334 333 332 331 331 329 330 329 330 328 329 330 328 329 328 328 328 328 328 326 326 326 327 327 328 328 328 328 329 331 331 331 330 331 331 334 335 334 334 334 334 332 329 331 332 331 331 331 331 331 331 332 332 333 333 334 334 334 335 336 336 335 337 336 336 334 333 332 333 334 328 335 335
322 325 328 334 339 338 338 337 338 337 335 335 334 333 333 332 330 329 329 330 329 329 329 328 329 329 328 329 328 328 326 327 326 326 326 327 327 327 328 329 330 331 331 330 330 330 331 334 333 333 333 333 332 333 334 333 332 332 333 333 332 332 332 332 333 333 334 334 334 334 332 329 330 334 335 337 337 335 332 333 332 332 333 335 335
322 324 328 333 334 337 337 337 337 337 336 335 335 333 332 331 331 331 329 329 330 328 328 328 329 329 328 327 328 325 326 327 326 326 325 326 326 327 327 329 330 330 329 329 330 330 331 333 332 333 332 331 331 332 333 332 333 333 333 333 333 332 332 332 333 334 333 334 334 333 328 327 327 332 335 336 336 334 332 333 333 332 331 333 334
323 324 328 330 332 334 336 338 336 336 336 335 335 332 332 331 332 330 330 330 329 329 328 328 329 328 328 328 325 326 327 326 326 325 325 326 325 326 326 327 328 329 328 330 330 329 331 331 332 331 331 330 331 332 333 333 333 334 334 332 332 332 333 333 333 333 333 333 333 329 327 326 326 327 333 335 335 332 334 334 332 331 332 333 334
324 327 326 327 330 333 336 337 336 336 335 335 334 333 332 332 332 330 330 330 330 329 329 329 328 328 328 326 325 326 326 326 325 325 326 325 325 325 326 327 328 328 329 330 329 330 331 331 328 329 331 330 331 332 332 333 333 333 332 332 332 333 333 332 333 333 333 331 327 326 326 326 326 326 333 334 336 335 333 333 333 333 333 333 333
320 327 326 325 330 334 337 336 336 336 335 334 333 333 332 332 332 330 330 330 330 328 328 328 328 328 326 325 326 325 326 324 324 325 326 325 325 324 325 326 327 328 329 329 329 329 330 329 328 331 330 330 331 332 332 332 332 332 332 332 332 332 333 333 333 332 332 328 326 325 325 326 326 326 332 334 334 336 335 334 333 333 332 332 331
321 324 324 325 330 335 337 336 336 335 335 334 334 333 332 333 331 330 330 330 328 328 327 328 327 326 325 326 325 325 324 324 324 325 325 324 324 324 324 326 327 327 329 329 329 330 329 328 329 331 330 331 331 332 332 332 332 333 333 333 333 332 332 333 331 332 329 326 325 325 325 325 325 325 331 334 336 336 335 334 333 332 332 331 330
319 322 322 324 330 335 337 336 336 335 335 334 334 332 332 332 330 329 330 329 328 328 329 328 326 325 325 325 325 324 324 323 324 325 324 323 323 323 324 325 326 327 329 328 329 328 328 328 330 330 330 330 332 332 332 332 333 332 333 333 333 332 332 331 331 329 326 325 325 325 325 330 326 326 329 334 336 336 334 332 330 329 328 328 329
319 320 321 325 331 335 336 335 335 335 335 334 334 332 333 332 330 329 330 328 328 328 328 327 325 325 324 325 324 324 323 323 323 323 322 322 321 322 324 325 326 327 328 328 329 327 328 329 330 330 330 331 332 332 332 332 332 332 333 332 332 332 331 330 329 325 324 324 324 325 326 329 326 324 331 334 334 337 333 332 330 331 331 330 331
318 319 320 326 331 335 335 335 334 334 334 335 333 332 333 331 330 330 329 328 327 328 327 326 325 325 324 324 324 323 323 323 323 321 321 320 320 321 322 324 325 327 328 328 328 327 328 328 330 330 331 332 332 332 332 331 331 332 333 332 331 330 329 329 326 323 323 324 324 326 326 325 325 326 333 333 335 333 335 332 333 332 332 331 330
317 317 321 328 329 333 333 334 333 333 334 334 333 333 332 330 330 330 328 326 326 326 326 325 325 325 324 324 323 323 322 322 322 321 320 319 319 319 320 322 324 326 327 328 328 328 328 328 330 330 331 332 332 331 331 331 331 331 331 330 330 329 328 328 324 323 323 324 325 325 325 325 325 331 333 335 335 336 335 335 334 335 331 330 329
316 316 321 327 326 331 332 333 333 332 333 333 333 332 331 331 331 330 328 326 325 325 326 325 325 324 323 323 322 322 321 321 321 319 318 316 317 318 318 320 323 325 326 327 327 327 327 328 329 331 331 332 331 331 330 331 331 331 330 329 328 327 326 326 326 323 323 325 325 325 324 325 325 332 333 335 334 335 336 336 336 332 331 332 330
316 317 319 325 325 326 330 331 331 331 333 332 332 332 331 330 330 330 328 325 325 325 325 325 324 324 323 323 322 321 320 319 318 317 315 315 316 316 316 317 321 324 325 326 326 326 327 328 329 331 331 331 331 331 330 330 330 329 328 327 326 326 326 323 323 322 324 324 323 324 324 324 330 334 336 335 337 336 335 335 335 333 331 332 329
320 319 321 322 323 324 325 328 329 331 332 332 332 331 331 330 330 330 328 326 325 324 324 324 323 323 323 322 322 321 320 319 318 317 316 315 316 315 315 315 318 321 323 325 326 326 327 328 330 331 331 331 330 329 329 329 329 328 328 326 326 326 326 325 322 324 323 322 323 324 324 324 331 333 335 336 336 336 336 335 334 332 331 331 329
321 319 319 319 322 322 322 323 325 329 330 330 331 332 330 330 330 329 328 326 324 324 323 323 322 322 322 321 321 320 319 318 318 317 315 315 315 316 315 315 315 319 322 324 325 325 327 328 329 330 330 329 329 328 329 329 329 328 327 326 326 325 326 326 324 322 322 322 323 323 323 323 329 334 333 335 336 336 335 334 334 332 332 329 329
319 318 318 319 320 321 320 320 322 323 323 327 330 331 331 330 329 329 329 327 325 324 323 322 322 321 321 321 319 318 318 317 317 316 316 316 315 315 314 316 315 316 321 324 325 325 327 328 329 329 329 328 328 329 329 329 329 328 327 326 326 326 326 325 322 322 322 323 322 322 321 327 334 335 337 336 338 337 335 334 332 332 331 330 329
318 317 317 317 318 319 319 318 320 320 321 322 323 326 329 329 329 329 329 328 326 325 324 322 321 320 321 320 318 318 316 316 315 317 316 317 315 314 312 315 314 315 319 323 324 324 326 328 328 328 328 328 329 330 330 330 330 328 327 326 325 324 324 322 320 321 321 321 322 320 320 330 335 334 334 335 338 334 333 332 331 331 330 329 328
314 316 314 315 316 315 315 316 317 318 319 320 322 323 327 328 328 328 328 328 327 326 326 323 322 322 321 320 318 315 315 312 316 314 315 314 313 312 312 312 313 314 317 320 322 323 326 327 327 327 328 327 328 329 330 331 330 328 327 325 324 323 318 317 319 320 321 320 320 318 324 330 335 334 336 336 337 335 332 331 330 330 330 329 329
313 313 312 314 315 314 313 313 316 317 317 319 320 322 323 326 326 327 327 327 326 325 324 322 320 320 319 318 318 313 308 309 311 310 313 313 315 316 314 313 313 314 316 318 321 322 325 327 327 327 328 327 328 330 330 328 329 327 326 323 322 316 316 318 318 319 319 317 318 317 326 330 334 337 336 334 337 334 332 331 331 331 329 330 329
310 310 311 311 313 313 312 311 314 317 316 318 320 322 322 324 321 321 321 323 324 324 320 315 318 314 318 314 311 308 307 309 311 315 311 311 313 315 314 314 313 314 315 316 319 321 324 327 328 328 327 328 328 322 322 325 326 326 323 322 316 315 317 317 316 315 315 315 317 318 324 329 334 337 338 338 336 335 332 331 329 330 330 329 330
308 309 309 310 311 311 312 310 311 316 316 317 319 319 319 320 320 320 320 322 320 319 315 315 312 312 313 311 308 306 308 309 309 313 312 311 309 313 314 316 312 313 314 315 317 320 325 326 328 328 329 328 321 319 318 318 318 323 320 317 315 315 316 315 314 314 313 314 315 320 322 327 334 334 334 335 336 335 333 333 330 329 330 329 330
308 309 309 311 311 311 311 311 309 313 315 316 318 318 318 318 317 317 317 316 317 317 315 314 313 310 312 309 308 307 309 308 317 317 313 307 307 313 314 315 315 314 316 317 318 320 322 326 327 329 329 322 319 318 318 316 316 317 316 315 314 315 314 313 312 312 312 314 315 319 321 325 332 334 338 335 334 335 334 332 332 330 330 330 330
308 309 309 310 309 310 310 310 309 311 314 315 316 316 317 316 314 314 314 314 314 316 315 314 312 310 312 310 309 308 310 307 308 307 304 304 304 307 306 306 306 305 314 309 311 316 320 318 321 324 317 319 317 318 317 316 316 316 315 314 314 313 312 312 312 311 311 312 314 317 319 324 332 335 339 340 340 335 336 334 332 331 331 329 328
310 308 309 310 309 310 310 310 309 310 313 314 316 316 316 312 311 311 312 313 314 315 314 313 311 311 311 311 310 308 308 307 307 307 306 306 306 306 307 307 306 308 313 310 312 315 316 318 318 317 317 318 317 317 316 316 315 313 314 314 313 312 312 311 311 311 311 311 313 316 318 321 328 335 335 340 342 339 338 336 333 332 331 330 329
309 309 310 310 309 309 309 309 308 309 311 313 315 315 312 310 309 310 311 312 314 315 314 311 311 311 311 311 308 307 308 306 306 306 306 305 305 306 306 306 306 306 311 311 312 314 316 318 317 316 317 317 317 316 315 314 314 313 313 313 312 311 312 311 311 310 310 310 312 315 317 320 324 330 332 338 340 337 338 338 334 334 333 332 331
307 308 309 310 310 309 309 309 308 308 310 311 313 312 310 309 309 311 312 312 312 313 312 311 311 311 311 310 308 307 306 305 307 306 305 305 305 305 307 307 306 304 307 310 311 312 315 317 317 315 317 316 315 314 313 313 313 312 311 311 311 311 311 311 311 309 309 310 311 313 316 318 321 326 333 336 337 336 335 338 338 334 334 333 333
307 308 309 310 310 310 309 309 308 308 309 311 311 311 309 310 309 309 309 313 311 312 312 311 309 310 310 309 308 306 306 307 306 306 306 305 305 306 306 305 306 305 306 306 310 311 314 316 317 315 315 314 313 311 312 312 312 311 310 310 310 310 310 310 310 309 309 310 309 311 315 316 318 323 330 333 333 335 336 337 337 336 335 335 337
308 308 309 309 311 310 309 309 309 309 309 310 310 309 309 309 309 308 309 311 309 311 311 309 307 307 309 309 308 307 306 305 306 305 304 304 305 306 306 305 305 305 306 306 310 311 314 316 316 314 315 313 312 310 311 311 311 310 309 309 309 309 309 309 309 309 309 309 309 309 313 314 317 320 325 330 333 335 335 336 335 336 335 336 336
307 307 309 309 311 311 310 310 309 310 310 310 308 308 309 309 309 308 309 309 309 310 309 308 307 307 309 309 308 307 307 306 305 305 304 304 305 305 305 305 305 305 305 307 309 311 314 315 314 314 312 311 311 310 310 310 309 309 309 309 309 309 309 309 309 308 309 308 308 309 309 312 314 317 320 325 331 334 335 335 334 337 337 335 335
307 307 308 308 309 311 310 310 309 310 310 309 308 307 309 309 308 308 309 309 309 308 307 308 307 307 308 309 308 307 306 306 306 305 304 304 304 304 305 304 304 304 304 307 308 313 314 314 314 315 314 311 310 309 310 308 307 308 307 307 309 309 309 309 309 308 308 308 308 308 308 309 311 315 317 320 325 331 333 335 335 336 334 336 335
308 308 308 308 309 311 311 310 310 309 309 308 308 307 308 309 309 308 309 310 309 308 307 307 307 307 309 309 308 308 306 306 306 306 305 304 304 304 305 305 305 304 305 307 309 311 313 312 313 314 313 311 310 308 310 308 306 306 307 306 307 308 309 308 308 307 307 307 307 308 308 307 307 311 313 317 321 328 333 334 333 333 334 336 336
307 307 307 308 310 312 312 312 310 309 308 309 308 307 308 309 309 309 309 309 308 308 307 307 307 306 308 309 308 307 306 305 306 305 304 303 304 305 304 304 304 305 306 306 305 308 312 312 313 311 312 309 307 307 306 306 304 304 304 305 305 307 307 307 307 307 307 307 307 307 307 307 307 308 309 313 317 323 329 333 334 333 334 336 337
306 306 307 308 309 311 312 312 311 309 309 308 308 307 307 308 309 309 308 309 308 308 308 307 306 306 308 309 308 307 306 305 306 306 304 303 303 303 303 304 304 304 304 304 305 308 311 312 311 311 310 308 307 305 305 304 303 303 303 303 303 305 306 306 307 307 306 306 307 307 307 307 307 307 308 309 313 317 323 329 332 333 334 333 334
307 307 307 308 308 310 310 310 310 309 308 308 308 307 308 308 309 310 307 309 309 308 308 307 306 306 308 308 307 307 307 306 306 306 304 304 303 303 303 304 304 303 304 304 304 306 310 312 311 311 308 307 306 304 304 302 302 302 302 302 302 303 303 304 305 306 306 306 306 306 306 306 306 306 307 308 309 313 318 323 328 329 332 333 332
307 307 308 308 308 309 310 309 309 309 309 308 308 307 308 308 308 308 308 309 308 308 307 307 306 305 306 308 307 307 307 306 306 306 305 304 303 303 303 305 304 303 303 303 302 305 310 312 309 310 308 306 304 303 302 302 301 301 301 300 301 301 301 303 304 304 306 305 305 306 305 305 305 306 307 307 308 310 314 317 323 324 325 329 333
304 306 307 309 308 309 309 309 308 309 309 308 308 308 308 308 307 308 308 309 308 307 307 307 306 305 305 307 307 307 307 306 307 306 304 305 303 303 303 305 304 303 304 303 302 304 310 309 309 309 308 307 305 302 301 301 302 301 300 300 300 300 300 301 303 303 303 304 304 305 305 304 305 305 306 307 308 309 311 314 318 321 321 323 329
303 303 304 307 307 308 308 308 308 308 308 308 308 307 307 307 306 306 307 308 307 307 307 306 306 305 305 306 308 307 307 307 307 306 305 304 303 303 304 304 304 303 303 302 303 307 310 309 309 306 306 305 304 302 301 302 301 300 299 299 298 299 299 300 300 301 302 303 303 304 305 303 304 304 304 305 306 308 309 311 313 317 321 320 323
303 303 303 304 306 307 307 307 308 308 308 307 308 306 306 306 305 305 307 308 307 306 306 306 306 305 306 307 308 307 307 307 307 306 305 304 303 303 303 304 303 303 303 301 302 305 308 308 308 306 303 303 303 303 301 300 299 298 297 298 298 298 298 298 298 298 300 302 302 303 303 303 302 303 304 304 305 306 307 308 310 313 318 321 320
303 302 302 302 303 306 306 305 306 307 307 307 307 306 306 305 304 305 306 307 306 306 306 305 305 304 306 307 308 306 306 307 307 306 305 305 304 302 304 303 303 303 302 302 302 306 308 308 307 306 303 302 301 301 300 299 297 295 296 296 296 298 298 297 297 297 297 298 300 300 302 302 302 302 303 303 304 304 305 306 308 310 313 320 322
301 301 300 302 302 304 306 305 305 306 307 307 306 306 306 306 305 305 305 306 305 305 305 305 305 306 306 306 308 306 307 307 307 306 305 304 303 302 303 302 302 302 302 302 303 307 309 308 307 305 304 302 300 301 302 300 297 294 293 294 294 295 296 296 297 297 297 297 298 298 300 301 301 301 302 302 302 302 302 303 306 307 309 313 321
301 300 300 301 302 303 305 305 305 306 305 307 306 305 306 305 305 304 306 304 304 305 305 305 306 305 306 306 308 306 306 306 307 306 306 304 303 302 303 303 302 302 301 301 302 305 309 307 306 305 303 302 301 303 301 300 296 296 296 294 292 292 295 294 295 296 297 296 297 298 299 299 299 300 301 301 300 300 300 302 304 305 306 308 314
301 299 301 301 303 303 303 304 304 305 305 306 306 306 306 305 305 306 306 305 304 305 305 305 305 304 305 306 307 306 306 306 307 306 306 305 304 303 303 303 302 302 301 301 302 305 307 306 306 305 304 302 299 300 302 302 300 299 294 294 293 294 290 292 291 293 296 296 297 297 296 297 297 299 300 299 299 299 298 300 303 304 304 305 309
301 300 300 301 304 302 303 304 304 304 305 305 306 306 307 306 306 306 305 305 304 304 303 303 304 304 305 305 306 306 306 307 307 306 305 305 304 303 303 303 302 302 302 302 302 305 305 305 307 305 304 302 300 299 301 301 301 300 299 298 293 293 292 291 290 290 292 294 295 295 295 296 296 296 297 297 297 298 297 298 301 303 303 303 305
302 303 301 302 302 302 302 303 303 304 304 305 306 307 306 305 305 304 303 302 301 302 302 303 304 304 305 306 306 306 307 307 306 306 305 305 305 304 303 303 302 302 302 302 301 302 304 305 306 306 304 303 302 299 299 300 300 300 299 298 298 295 291 292 291 289 291 294 295 295 294 295 294 295 296 295 295 295 296 296 298 300 301 301 302
303 303 303 302 302 302 302 303 303 304 305 304 305 306 305 305 305 304 303 303 302 302 302 302 304 304 305 305 305 305 307 307 306 306 305 305 305 304 304 303 303 302 303 301 300 302 304 305 307 306 305 305 303 300 300 300 299 300 301 299 298 298 299 292 291 289 289 291 292 292 294 294 295 294 294 294 294 293 293 294 295 296 298 300 300
303 302 302 302 301 301 301 302 302 304 305 305 305 305 305 304 304 303 303 303 302 302 303 304 304 304 304 305 304 305 306 306 306 306 305 305 305 304 304 303 303 303 302 301 300 301 304 306 306 307 306 305 305 302 300 299 299 298 300 298 297 298 298 298 298 295 292 287 289 292 293 294 294 293 293 292 292 292 292 292 293 294 295 297 298
302 302 302 302 302 301 301 301 302 303 304 305 305 304 305 304 304 304 302 303 302 303 303 303 304 304 303 303 304 304 305 305 305 306 305 305 305 305 304 303 303 302 303 302 300 301 302 304 305 306 306 305 305 304 302 300 299 299 298 297 297 297 297 297 297 296 295 289 289 288 289 292 293 293 292 292 292 291 291 291 292 293 294 294 295
301 302 302 302 302 301 301 301 301 302 304 304 304 304 304 304 303 303 302 301 302 303 303 303 303 303 303 303 303 304 304 304 304 305 305 305 304 305 304 304 303 302 302 301 300 300 301 303 305 305 305 305 304 304 304 302 301 301 300 298 297 296 295 295 295 294 295 295 290 289 290 290 291 292 292 291 291 290 290 290 291 291 291 292 293
300 300 301 301 301 301 300 300 301 302 303 304 303 303 304 303 303 303 302 302 301 302 301 302 303 302 302 303 303 303 303 304 303 304 305 305 304 304 305 304 303 303 302 301 301 301 302 302 304 305 304 305 304 303 303 303 302 301 300 298 298 298 296 294 294 295 294 292 292 290 290 292 292 290 291 290 290 290 290 290 289 290 290 290 291
Wind_Speed
3 8 10 16 17 17 17 16 15 14 14 13 13 12 12 11 10 9 8 8 7 7 5 5 5 4 4 4 3 3 3 3 3 4 4 4 5 5 6 7 7 8 8 8 9 9 10 10 12 12 12 14 14 14 15 12 12 14 14 14 15 15 16 16 16 17 17 18 20 21 21 22 23 24 24 24 22 22 22 21 20 15 12 10 18
7 8 9 11 18 17 17 16 15 15 14 13 13 12 12 11 10 10 9 8 8 7 7 6 5 5 5 4 3 3 3 3 4 3 3 4 4 5 6 6 7 8 8 8 8 10 10 10 12 12 12 14 14 13 15 15 11 11 13 14 15 16 17 18 18 18 18 20 21 22 21 23 23 24 25 25 24 22 21 21 21 14 7 14 20
6 9 9 11 16 17 16 16 15 15 14 14 13 12 12 11 10 10 9 9 7 8 7 6 5 5 5 4 3 3 3 4 4 4 4 4 4 5 6 6 7 7 8 9 8 9 10 11 12 12 13 13 14 14 11 14 16 14 14 14 15 16 17 18 19 19 20 21 21 22 22 23 23 25 24 24 22 22 19 18 19 19 9 19 20
8 7 8 12 16 16 16 16 15 15 14 13 13 12 12 11 11 10 9 9 8 8 8 7 6 5 4 4 4 4 4 4 4 4 3 3 4 5 5 6 7 8 8 8 8 9 10 11 12 12 13 13 14 15 15 15 15 16 16 16 16 18 18 19 19 20 21 21 21 22 11 9 13 18 22 22 22 21 20 18 18 17 19 19 21
7 8 8 9 9 13 16 16 15 14 14 14 13 12 12 11 11 10 10 9 9 8 7 7 6 5 5 5 4 4 4 4 4 4 4 3 4 4 5 6 7 7 7 7 8 9 11 11 11 12 12 13 13 15 15 15 16 16 16 18 17 18 19 20 20 21 21 22 22 20 9 10 10 15 21 21 21 21 19 18 16 17 17 18 19
7 8 8 8 8 9 16 15 14 15 14 14 13 12 12 11 11 10 9 9 9 8 8 7 6 6 5 5 4 4 4 4 4 4 3 3 4 4 5 6 6 7 7 8 9 10 10 11 11 11 12 13 13 14 15 16 16 17 17 18 17 19 18 20 20 21 21 23 22 10 9 9 10 8 19 21 22 20 18 16 13 15 17 19 20
8 7 8 8 7 9 16 15 15 15 14 14 13 12 12 11 11 10 10 9 9 8 7 7 6 6 5 5 4 4 4 4 4 4 3 4 3 4 5 6 6 7 7 9 9 9 10 11 10 10 13 14 14 14 15 17 17 18 17 18 19 18 19 20 20 21 22 18 8 9 8 9 9 7 17 23 23 23 22 21 19 19 19 19 21
5 6 7 7 7 10 15 15 15 15 14 13 13 12 12 11 11 10 10 9 9 8 7 7 6 5 5 4 4 4 4 4 4 4 4 4 4 4 5 5 6 7 7 9 9 9 10 11 11 12 12 13 14 15 16 17 18 18 18 18 18 18 18 20 21 21 24 12 9 8 8 8 9 9 15 24 24 23 22 23 21 20 20 18 18
5 6 7 7 7 16 13 15 15 15 14 14 13 13 12 11 10 10 10 9 8 8 7 7 6 5 5 5 5 4 4 3 4 4 4 4 4 5 5 5 6 7 8 8 8 9 10 11 11 12 12 13 14 15 17 17 18 17 17 18 18 18 19 20 20 23 13 8 10 9 9 9 10 10 15 24 25 25 24 20 16 21 21 19 18
5 5 5 6 8 17 15 16 15 15 14 14 13 13 12 11 10 10 10 9 8 8 8 7 6 6 5 5 4 4 3 4 3 4 4 4 4 5 5 5 6 6 8 8 8 8 10 11 11 13 13 14 15 15 16 17 17 17 17 18 18 18 19 19 21 17 9 9 10 11 10 13 10 10 15 25 25 26 24 21 16 15 10 13 15
6 5 4 4 12 17 16 16 15 15 14 14 14 13 12 12 11 10 10 9 9 8 8 7 6 6 6 5 4 4 3 3 3 3 4 4 5 5 5 6 6 6 7 7 8 9 10 11 12 12 13 14 14 15 16 17 17 17 18 17 18 18 19 19 19 7 8 10 10 9 11 18 11 10 19 26 26 25 24 21 19 19 21 17 17
6 5 4 5 13 16 16 16 15 15 14 14 14 13 12 12 11 11 10 9 9 8 8 7 7 6 6 5 4 3 3 3 3 4 4 4 5 5 6 6 6 6 7 7 8 8 10 11 12 13 13 14 15 16 16 16 17 17 17 18 18 18 18 18 12 8 8 10 11 11 11 11 12 13 27 26 28 23 25 21 19 22 22 21 19
6 5 5 7 8 14 15 15 15 15 14 14 14 13 13 12 11 11 10 10 9 9 8 8 7 7 6 5 4 3 3 3 3 3 4 5 5 5 6 7 7 6 6 7 8 9 9 11 12 13 13 14 15 16 16 16 15 16 17 17 17 17 17 18 9 9 9 10 9 10 11 11 12 21 27 30 25 27 27 26 24 17 18 21 19
6 5 6 7 6 12 15 13 14 14 14 14 14 14 13 12 12 12 11 10 10 9 9 8 8 7 6 5 4 4 3 3 2 1 4 5 5 5 6 7 7 7 6 7 7 9 9 10 12 13 14 14 15 15 15 14 15 16 17 17 16 16 17 11 11 8 9 9 10 10 12 11 12 25 28 27 24 26 26 25 22 18 18 19 20
7 6 5 7 7 7 13 13 13 13 13 14 14 14 13 13 12 12 11 11 10 10 9 9 8 7 7 5 5 4 4 2 2 3 4 5 5 5 6 7 7 7 7 7 7 8 9 10 11 13 14 14 14 13 13 13 14 16 17 15 14 13 15 8 8 7 8 9 9 11 11 11 20 26 28 28 24 25 24 20 18 17 18 17 16
7 6 5 6 7 7 7 9 12 12 11 12 12 13 13 13 13 13 12 11 11 10 10 9 8 8 7 6 5 5 4 3 3 3 3 4 5 5 6 6 7 7 6 7 7 7 8 9 11 12 13 14 13 12 11 12 11 14 14 14 13 13 14 11 6 7 7 9 9 10 11 12 25 28 26 24 21 22 22 17 14 12 14 13 14
8 7 6 6 8 7 7 6 8 11 11 11 11 12 13 13 13 13 13 12 11 11 10 9 8 8 7 6 6 4 4 3 3 3 4 4 4 5 6 6 6 6 6 7 7 7 7 9 11 12 12 13 12 11 11 13 12 13 13 14 15 14 13 12 6 7 8 9 9 9 11 11 22 28 26 23 21 17 16 13 9 11 11 13 12
7 6 7 6 7 8 7 6 7 7 6 8 10 12 12 13 13 13 13 13 12 11 10 9 8 8 7 7 6 5 4 4 5 5 5 5 4 5 6 6 6 6 6 6 7 7 7 8 9 10 12 12 12 11 13 14 13 12 12 12 13 12 10 9 6 7 8 9 8 10 10 18 31 28 27 24 19 11 10 7 5 8 8 9 9
5 6 5 6 7 8 9 7 7 7 7 6 5 8 13 12 12 12 12 13 11 11 10 9 8 8 7 8 6 6 5 6 6 6 6 6 5 5 5 5 6 6 6 6 7 6 7 7 8 9 10 11 12 15 14 15 13 11 11 10 12 11 10 6 5 6 7 7 8 10 12 28 29 31 28 23 20 5 2 2 3 4 7 9 8
5 5 6 6 7 7 8 8 8 8 7 6 7 6 10 12 12 12 11 11 10 10 9 8 7 6 7 8 7 5 6 5 8 6 7 7 6 4 4 5 5 6 6 6 6 6 5 6 7 8 8 11 14 15 15 11 9 9 8 10 9 10 7 5 6 7 7 8 10 9 20 30 30 29 28 25 19 7 1 2 3 4 6 8 9
5 6 6 7 7 8 7 7 8 9 9 8 7 8 9 12 10 11 12 11 10 10 9 9 7 7 7 7 7 4 4 5 6 4 8 4 6 6 4 4 5 5 5 6 7 6 5 4 6 7 6 11 14 14 8 9 9 9 8 12 10 7 6 6 7 7 7 8 10 10 28 29 28 27 28 24 20 7 2 2 4 5 6 9 9
8 7 7 7 8 8 8 7 7 9 9 8 6 7 7 11 7 6 6 8 8 8 7 5 6 4 8 6 4 5 6 5 6 6 5 5 5 5 3 4 5 5 5 6 7 7 5 5 7 7 5 8 12 5 7 8 10 11 10 10 6 6 6 7 7 7 8 8 9 15 31 29 30 29 26 25 22 11 0 3 4 5 7 5 9
7 8 8 9 9 8 8 8 7 8 9 8 6 6 7 8 8 7 6 7 6 6 6 6 5 5 5 4 5 6 6 5 3 4 2 1 1 5 6 5 6 6 6 6 7 9 8 8 9 9 7 8 6 4 6 6 6 9 8 6 5 6 6 7 6 7 8 8 7 21 27 28 30 29 24 23 21 15 4 4 5 7 12 12 10
10 10 10 9 10 10 11 10 9 9 8 7 6 7 6 7 7 7 6 6 6 6 5 6 5 5 6 6 6 7 6 3 5 6 3 2 4 7 8 6 6 7 7 5 8 9 12 10 10 9 6 4 4 4 5 6 6 6 6 6 6 6 7 7 6 7 7 8 8 24 27 29 30 29 29 23 20 17 10 4 6 6 8 10 10
9 8 7 10 12 11 9 10 9 9 9 7 7 6 6 7 7 7 7 7 6 7 6 6 6 6 6 7 7 5 4 3 4 3 3 4 4 4 4 4 4 4 6 4 5 5 6 5 4 4 2 5 3 4 4 5 5 5 6 6 6 6 6 6 7 7 7 8 9 22 26 27 28 28 25 27 26 19 10 5 7 7 7 8 10
8 8 11 10 12 12 11 10 10 9 10 9 8 7 7 7 7 8 7 7 8 7 7 7 7 7 6 6 6 3 4 3 4 4 5 6 4 3 5 6 5 4 6 5 6 2 2 3 3 3 2 4 2 4 3 4 5 5 6 6 5 6 6 6 7 7 7 8 9 20 25 26 28 30 31 28 28 22 17 10 9 9 8 8 7
8 10 9 9 11 11 11 10 11 10 11 9 7 7 7 7 7 8 8 7 8 7 7 7 7 6 6 6 6 4 5 4 5 4 3 3 3 4 3 3 2 3 4 5 1 0 4 2 2 3 1 3 1 3 3 4 4 5 6 6 5 6 6 6 7 7 7 8 9 20 23 25 26 27 27 27 29 26 21 14 10 9 9 8 8
7 7 8 9 11 13 12 12 11 11 10 10 8 8 7 7 8 7 8 8 8 8 7 7 7 8 6 7 5 6 7 6 5 4 5 3 4 3 0 0 0 3 2 1 1 2 3 3 1 3 1 2 3 4 2 4 3 4 5 6 5 6 6 6 7 7 7 7 9 14 21 23 25 27 28 28 27 25 22 18 15 12 11 10 8
9 8 7 9 12 12 12 13 12 13 10 11 9 8 8 8 7 7 7 7 7 7 7 7 8 7 7 6 6 6 6 7 5 5 5 4 4 2 1 2 3 1 0 2 2 3 3 0 3 1 1 0 4 3 2 4 3 4 5 5 5 6 6 6 6 7 7 7 8 11 19 22 22 25 28 26 25 26 25 21 16 18 17 15 17
10 8 8 8 8 11 13 14 13 13 12 11 9 9 9 9 8 8 8 7 7 7 6 7 7 8 8 6 7 6 6 6 6 5 5 4 3 2 1 2 1 2 1 2 1 1 1 1 0 1 0 2 4 3 3 4 4 4 4 4 6 5 5 6 6 7 7 7 8 8 16 20 21 23 24 26 26 25 24 23 19 20 21 19 19
7 8 8 8 8 11 12 13 12 12 11 12 11 10 9 10 9 8 8 7 7 7 7 7 7 7 8 7 6 6 5 5 5 5 5 4 3 3 3 4 3 3 2 1 0 1 1 4 2 3 2 3 4 4 3 5 4 4 4 4 5 5 6 6 6 6 7 8 7 8 10 16 19 21 23 25 28 24 25 23 23 20 23 23 23
8 10 8 7 8 12 12 12 12 12 12 11 11 10 10 10 9 8 8 8 7 7 7 7 7 7 7 8 6 6 5 4 4 5 4 4 5 4 5 3 3 3 2 1 1 0 2 3 2 1 1 3 4 2 2 4 4 3 4 4 4 5 5 6 6 7 7 7 7 8 8 10 15 20 20 23 24 25 22 22 21 22 22 22 23
9 10 9 8 9 10 11 12 11 11 12 12 12 10 9 9 9 9 8 8 8 7 7 7 7 7 7 9 7 6 5 5 5 4 4 4 4 4 3 2 2 1 3 3 0 1 2 2 1 2 0 2 3 2 4 5 5 5 4 4 5 5 5 5 6 6 7 7 7 7 8 9 9 13 19 20 22 24 25 21 21 23 23 20 22
9 8 7 10 8 7 8 8 11 12 12 10 10 10 10 9 8 8 8 8 8 8 7 7 7 7 7 8 7 7 6 5 5 4 4 3 3 3 3 3 3 2 4 3 3 3 3 4 4 2 2 2 4 3 4 5 4 5 5 4 5 4 5 5 6 6 6 7 7 7 8 8 8 9 9 14 20 22 25 22 21 20 20 20 21
7 7 10 12 9 9 8 8 11 11 12 11 11 10 9 9 9 8 8 8 8 8 7 7 7 7 7 8 7 6 7 5 5 6 5 4 4 4 4 4 3 3 3 4 5 5 3 3 3 5 2 4 4 3 4 5 3 4 4 5 5 5 5 5 5 6 7 6 6 7 7 8 8 8 8 8 12 18 21 22 21 21 19 19 22
9 9 9 8 9 8 10 10 11 13 13 12 10 11 10 9 9 9 8 8 8 8 7 7 7 7 7 7 7 6 6 6 5 6 6 5 4 6 6 4 4 3 3 4 2 2 3 4 2 4 3 4 4 3 4 4 4 4 4 5 5 5 5 5 5 5 6 6 6 7 7 8 8 8 8 8 8 11 18 19 20 20 19 16 17
8 8 9 8 9 9 10 11 13 14 13 12 10 9 10 10 9 9 9 9 8 8 7 7 7 7 7 8 7 7 6 6 6 6 7 5 4 5 5 4 4 4 3 4 3 4 3 3 2 1 3 4 5 4 4 4 3 4 3 4 4 4 5 5 5 5 5 6 7 7 7 8 8 9 8 8 8 8 12 16 18 21 20 17 13
7 8 8 11 10 9 9 9 8 9 10 11 10 9 9 9 8 8 8 9 9 7 7 8 8 7 7 8 8 7 7 6 6 6 5 6 5 5 4 6 5 4 3 3 4 4 4 3 4 1 3 5 5 4 4 3 3 3 3 4 4 4 5 5 5 5 5 6 6 7 7 6 7 8 8 8 8 8 8 11 15 16 18 16 15
4 5 5 6 6 7 7 7 8 7 8 8 8 8 7 7 6 7 7 9 7 7 8 8 7 8 7 8 9 8 7 7 6 6 6 6 6 4 6 5 4 4 3 4 4 2 5 3 5 2 2 2 6 5 5 5 3 3 3 3 4 4 4 4 5 5 5 5 6 6 5 7 7 8 8 8 8 8 9 8 8 8 10 18 15
3 3 5 5 6 6 6 6 7 8 6 7 7 7 7 8 9 7 7 9 8 8 7 8 7 8 7 8 9 8 7 7 7 6 6 5 5 5 5 5 5 4 4 4 4 4 4 4 5 4 4 4 5 6 5 5 4 4 3 3 3 3 4 4 4 5 5 6 6 5 7 6 7 7 9 8 8 8 8 8 8 8 7 11 16
3 4 5 5 5 7 8 8 7 8 8 9 9 10 10 8 7 10 11 9 9 7 7 7 8 7 8 8 9 8 8 7 7 7 7 6 6 5 5 5 5 4 4 5 4 5 4 4 5 4 5 4 2 4 4 5 5 3 3 2 2 2 3 4 4 4 5 5 5 6 5 6 7 8 7 7 8 8 8 9 8 8 8 7 9
3 4 5 5 5 6 8 7 7 8 8 9 9 10 9 11 12 11 9 9 9 10 9 7 8 7 8 8 9 7 8 8 8 7 7 6 6 6 6 6 5 5 4 4 4 4 5 4 5 4 3 5 3 4 5 6 1 3 3 0 1 2 3 3 4 4 4 4 5 5 6 6 7 6 6 7 8 9 9 8 7 8 8 7 8
4 5 5 5 6 6 7 7 7 8 8 8 9 10 8 6 7 6 9 6 4 5 6 6 7 7 8 8 9 8 8 8 8 7 7 6 7 6 7 7 6 5 4 4 5 4 6 5 6 6 5 3 3 4 5 4 3 4 4 4 1 0 1 1 2 3 4 4 4 6 5 6 6 5 5 6 7 8 7 7 8 8 8 8 7
4 5 5 6 5 5 5 7 7 7 7 7 8 7 6 5 5 6 6 6 5 5 5 5 6 7 8 8 8 8 8 8 8 7 7 6 7 7 6 6 7 5 6 5 5 4 5 4 6 5 5 5 3 4 4 5 3 2 3 3 4 4 1 1 0 1 2 4 5 4 4 5 5 6 5 7 6 7 7 7 8 8 8 8 7
4 4 5 5 4 5 5 6 7 7 6 7 7 7 7 6 6 6 5 6 4 6 6 7 8 7 7 8 9 8 8 8 8 8 7 8 7 7 7 7 7 6 5 6 6 6 5 5 6 5 6 6 5 3 4 4 4 2 1 0 1 0 1 2 2 1 3 2 3 3 4 4 5 5 5 5 5 5 6 7 7 7 8 8 8
4 4 4 5 4 5 5 5 5 6 7 7 7 7 8 9 9 10 10 8 8 10 13 15 12 11 11 6 7 8 8 8 8 8 7 7 7 7 6 7 7 7 6 6 5 5 5 6 7 6 5 5 7 4 4 4 4 3 4 2 0 1 3 3 1 1 2 1 0 2 3 3 4 4 5 5 6 6 6 6 6 7 7 7 7
4 3 2 2 3 4 4 5 4 5 5 6 7 7 7 8 10 10 11 12 13 10 6 5 8 7 6 8 8 7 8 9 8 8 7 7 7 7 6 6 7 7 6 6 6 7 7 6 5 6 6 6 5 6 7 6 2 3 3 3 2 1 1 4 2 3 0 1 1 2 3 3 3 4 4 4 5 5 5 5 6 6 6 6 7
4 4 4 2 3 4 4 5 4 5 5 6 7 7 8 7 8 8 8 8 9 8 8 7 6 6 7 8 7 7 8 8 8 8 8 7 7 7 7 6 6 7 7 7 7 6 7 5 6 7 5 6 6 6 6 6 8 4 5 4 2 2 1 0 1 3 3 2 2 2 1 1 2 3 3 3 4 4 5 5 6 6 6 6 6
4 4 4 3 3 4 5 5 5 5 6 7 7 6 6 7 7 7 7 5 6 6 6 7 8 8 8 7 8 8 7 7 8 8 8 8 7 8 7 7 6 7 7 7 6 6 8 7 7 7 8 7 7 6 5 7 7 7 4 4 4 4 4 2 1 2 1 2 0 1 2 1 1 0 2 3 3 3 3 3 3 4 5 5 6
3 3 4 4 3 2 4 5 5 4 5 6 7 6 5 6 7 7 7 6 6 6 8 8 8 8 9 8 8 8 8 7 7 7 8 8 8 7 8 8 8 7 7 7 6 6 6 7 8 8 7 7 5 7 8 6 8 7 8 6 6 3 3 2 2 2 1 1 4 4 5 5 4 2 1 2 1 1 2 2 3 3 3 4 5
3 3 4 4 3 3 4 5 5 4 6 6 7 8 7 6 7 8 8 8 8 7 9 8 8 8 10 9 9 8 8 8 7 7 8 8 9 8 8 8 7 7 7 7 7 7 7 7 7 7 7 8 7 6 6 6 5 7 7 7 8 8 7 6 6 4 4 2 2 2 2 4 4 3 3 2 2 1 1 1 1 2 2 3 3
Wind_Direction
251 144 149 164 166 165 165 167 168 166 167 171 171 174 171 170 177 181 185 192 192 195 205 210 215 216 234 241 242 266 288 276 274 289 292 298 303 301 308 304 306 307 311 325 322 318 329 326 330 331 333 336 334 330 329 334 338 329 326 323 321 318 318 317 314 311 309 306 303 301 299 298 294 290 289 285 283 282 279 278 278 274 270 261 264
175 132 151 163 166 167 166 169 169 169 171 172 175 177 175 174 177 182 189 195 193 196 203 207 216 219 231 234 259 256 258 258 275 275 290 293 296 305 304 308 308 310 313 323 322 323 325 334 334 330 336 335 330 337 328 329 339 330 324 322 321 319 320 319 315 311 306 304 303 301 299 296 292 289 286 284 283 283 281 275 271 270 264 268 263
133 127 148 164 166 167 168 169 170 172 174 174 177 181 180 176 179 184 192 194 196 196 204 207 212 224 223 250 242 244 241 271 268 282 283 283 293 299 306 308 310 311 316 330 322 320 330 337 333 334 335 333 326 330 325 328 333 333 325 322 319 319 318 315 312 310 309 305 302 300 298 294 291 288 285 283 281 282 279 278 275 269 264 264 262
128 134 148 161 165 169 170 170 172 175 175 176 180 183 181 180 180 186 195 195 198 203 202 204 208 219 241 230 240 237 263 263 274 273 271 280 287 297 305 309 306 313 325 332 325 321 336 338 334 336 335 332 328 328 332 331 327 328 326 323 322 321 320 317 313 312 309 307 304 303 298 292 287 282 281 280 277 277 279 270 268 270 267 263 261
132 134 145 156 165 170 172 171 174 176 177 179 182 185 183 181 183 190 193 198 203 205 206 202 208 226 222 230 235 253 261 260 267 257 266 275 289 298 308 309 318 328 332 327 328 324 336 343 336 336 337 332 329 330 326 324 326 323 322 321 321 319 318 315 313 311 310 309 306 303 295 288 280 274 276 277 277 280 276 268 270 267 266 270 268
135 136 143 158 162 172 174 173 176 177 178 181 185 186 184 185 187 190 195 199 205 208 206 209 211 213 221 230 232 260 252 261 250 261 265 275 289 300 311 317 321 324 325 321 321 331 341 341 341 337 333 332 330 326 322 323 323 323 322 320 320 319 317 316 315 314 312 310 308 301 290 281 277 272 280 285 282 279 271 267 255 258 258 259 258
136 138 145 162 159 170 175 175 178 178 180 183 187 185 188 190 188 191 196 204 204 207 213 211 211 214 225 223 247 242 252 248 259 261 274 279 286 301 310 317 317 319 321 324 331 338 341 343 338 337 333 332 330 324 325 324 325 324 321 321 322 320 317 317 318 316 314 310 300 292 281 279 279 284 286 286 282 280 280 273 262 257 255 256 258
135 135 150 166 156 167 175 178 178 180 182 186 185 187 191 192 190 194 200 200 204 210 212 215 214 218 217 234 234 237 243 255 257 275 279 283 294 300 307 311 315 318 321 327 339 339 346 335 344 340 335 332 329 326 324 325 325 325 326 324 322 318 319 321 321 319 315 310 299 288 283 282 286 290 287 286 281 280 274 265 263 265 261 253 256
140 149 152 165 161 158 173 180 179 181 184 186 187 189 194 192 193 197 199 202 204 208 213 215 216 220 225 231 230 232 242 250 272 277 283 296 304 308 308 311 314 319 322 332 342 349 340 342 341 338 335 333 331 329 326 327 329 329 327 325 323 324 326 325 323 320 318 303 292 286 285 288 287 284 285 285 281 280 276 276 278 267 260 258 255
153 155 167 169 149 155 169 179 180 181 185 188 188 190 194 195 194 198 200 201 206 208 210 210 219 221 229 229 230 232 229 257 273 280 285 304 313 314 314 313 313 319 322 333 340 352 339 344 342 338 338 336 333 329 331 330 330 329 329 327 327 328 328 327 325 319 308 297 292 291 293 292 291 288 285 286 282 278 281 296 290 273 242 244 252
159 169 162 148 140 156 165 177 181 183 186 188 189 193 194 194 197 198 197 202 205 207 207 213 215 222 229 231 227 227 235 249 265 276 295 308 316 319 317 314 315 319 323 338 336 348 337 346 340 341 338 335 332 333 332 333 334 331 331 332 332 331 333 332 323 309 303 298 297 298 298 301 300 293 289 283 281 280 286 281 279 276 256 237 239
161 167 147 111 146 155 162 174 182 185 187 188 192 194 194 196 196 196 198 200 202 205 211 212 214 221 228 227 225 228 239 246 261 279 297 312 318 322 320 316 313 318 325 333 342 339 346 343 342 339 338 337 337 336 336 337 337 336 339 339 334 336 331 324 322 306 302 301 299 299 303 302 294 287 288 284 284 292 282 280 271 264 256 243 241
160 158 119 127 146 156 163 172 182 185 187 191 192 194 195 195 196 196 197 198 202 207 209 210 216 219 222 227 224 231 238 247 259 286 308 316 322 324 320 317 316 318 324 333 343 335 349 342 341 340 339 340 340 338 340 342 342 340 337 336 337 336 330 324 315 310 306 297 299 311 310 306 298 293 289 281 285 286 282 274 266 265 262 255 242
156 155 132 141 146 155 167 172 181 185 188 190 194 196 195 198 198 196 195 199 202 204 206 210 213 215 219 222 223 222 229 242 257 286 313 314 319 323 322 317 316 319 326 330 337 336 343 343 341 340 342 342 341 344 347 346 341 340 340 336 336 335 328 320 315 310 304 302 317 316 312 305 297 296 298 301 298 291 287 283 265 257 244 236 243
156 156 146 136 145 160 167 174 183 185 187 194 197 194 196 200 198 196 197 200 202 203 206 208 210 211 216 217 216 214 217 241 217 278 292 299 311 321 318 317 316 320 322 327 331 334 342 343 342 343 345 343 346 349 348 346 341 337 343 342 340 334 319 317 314 305 305 319 320 316 308 303 302 302 305 306 294 288 294 285 266 247 244 232 236
150 150 143 134 149 157 165 180 182 185 192 195 196 196 198 200 199 199 199 200 202 205 204 207 208 211 211 207 209 209 214 195 232 247 264 288 300 307 312 311 314 318 321 322 324 334 341 342 342 346 345 347 346 345 344 338 329 333 338 338 332 326 319 317 307 310 322 321 321 316 314 307 308 309 316 313 301 294 293 289 260 242 231 226 232
144 148 146 148 152 160 167 179 183 189 195 195 199 195 197 200 201 202 199 202 203 204 204 205 207 209 206 205 202 201 196 212 226 232 253 266 279 293 300 307 313 317 323 317 321 333 342 342 345 346 346 345 341 336 341 335 324 330 328 329 325 315 311 315 317 326 321 323 317 320 317 309 305 320 327 323 318 306 295 296 255 223 219 215 214
150 153 164 159 157 161 169 175 185 190 190 197 201 195 194 199 201 201 202 201 203 204 205 204 205 205 205 191 192 189 199 214 225 230 240 254 267 283 296 304 314 318 318 320 319 331 342 343 344 345 344 343 327 324 328 323 316 320 319 327 331 328 320 334 324 318 319 320 320 324 324 316 324 331 333 340 328 312 296 288 233 202 195 215 207
157 169 171 167 173 162 170 175 183 184 191 193 195 198 197 199 197 200 201 202 203 204 204 202 203 202 197 182 175 186 204 213 225 223 231 242 252 267 287 308 312 316 317 315 320 328 338 345 340 339 340 338 323 320 316 310 303 307 313 329 346 352 343 326 310 318 323 324 330 333 321 329 330 342 346 350 3 357 314 250 201 195 187 191 190
176 188 181 185 175 174 169 175 175 182 190 189 194 193 199 198 197 196 196 196 198 202 196 193 188 189 173 165 173 191 212 220 221 224 228 232 240 249 270 293 307 311 311 312 315 318 332 339 335 322 331 334 325 322 318 299 301 295 310 343 355 348 323 319 330 326 337 332 336 334 334 335 338 348 357 359 12 13 76 162 159 206 192 179 182
184 198 198 183 181 183 181 175 177 180 185 189 189 191 194 196 197 195 193 192 196 196 190 176 167 166 161 172 183 197 217 214 222 213 224 217 218 209 239 274 291 303 304 304 303 308 312 325 303 306 319 329 323 322 334 335 328 319 355 358 358 338 330 342 340 337 341 333 334 336 340 340 346 348 4 1 11 20 89 183 185 181 192 164 176
186 191 204 187 184 186 189 181 179 181 181 188 188 186 183 189 190 187 186 188 190 187 174 166 170 169 178 180 190 209 227 220 194 201 182 210 207 203 219 253 273 284 289 294 291 283 286 266 275 288 296 304 319 348 349 332 337 340 14 354 356 337 340 347 350 340 337 334 336 339 345 345 343 352 3 6 8 21 298 213 142 174 163 177 191
193 191 199 196 187 185 184 189 185 182 179 184 187 180 172 178 186 183 180 180 180 173 172 175 178 182 186 186 202 226 223 219 182 156 157 140 201 183 220 241 259 261 263 270 271 265 261 262 266 278 280 287 330 2 348 339 336 340 11 349 344 349 346 347 353 346 337 334 335 344 343 347 345 358 6 7 354 5 346 199 170 162 156 185 190
198 191 191 194 185 187 189 187 184 181 179 182 180 176 160 169 176 179 175 179 180 179 179 184 186 194 179 195 209 222 214 155 129 152 190 220 237 232 232 234 245 251 251 254 263 256 252 252 248 262 298 329 327 5 351 336 342 344 357 345 349 351 351 350 351 345 339 335 344 349 346 348 354 2 4 9 12 21 355 173 155 162 154 163 177
196 184 180 189 192 188 184 186 183 181 179 179 175 178 166 161 173 177 176 175 181 178 187 186 191 194 185 190 214 219 156 167 171 174 193 219 226 210 217 225 224 231 222 230 240 233 250 250 233 247 24 321 350 355 358 342 350 343 348 343 351 356 350 350 354 347 342 341 346 347 348 350 354 1 4 7 15 31 32 105 139 143 152 164 168
183 185 191 186 191 188 184 183 181 181 181 181 177 176 171 171 175 179 177 172 176 176 180 192 185 191 189 191 219 182 154 197 223 178 197 218 220 196 201 201 194 203 181 213 240 200 249 287 112 91 40 293 359 8 359 352 356 348 346 343 356 357 354 355 353 348 347 346 344 349 351 350 356 2 12 10 16 30 36 89 124 130 142 146 145
188 198 186 183 185 186 183 177 182 180 182 180 173 171 180 180 176 176 177 180 171 173 176 185 184 181 180 193 203 183 175 201 221 189 215 233 231 221 228 220 195 224 209 203 210 76 252 275 91 106 30 308 27 17 15 6 6 2 344 348 352 3 359 359 356 351 352 348 346 350 352 351 352 2 12 21 20 28 36 61 112 112 115 118 131
203 200 188 175 179 186 181 176 181 179 180 180 174 176 179 179 182 178 178 180 169 172 175 178 175 177 179 186 198 179 183 205 204 180 201 221 239 235 186 10 283 262 263 229 178 252 248 235 78 56 42 322 74 12 13 28 9 12 350 349 352 5 4 2 358 354 354 354 351 347 350 350 352 4 12 22 26 31 47 48 74 90 86 92 110
210 208 192 175 181 180 178 181 178 179 178 178 179 177 176 181 178 177 180 176 173 173 173 171 172 171 180 181 189 196 189 191 197 185 181 201 219 206 186 227 230 253 205 285 170 232 266 267 113 135 231 6 69 24 354 38 30 16 0 357 356 3 6 1 3 359 1 358 353 346 350 354 356 358 12 18 27 33 43 53 65 83 82 88 97
208 201 192 196 171 175 180 182 179 179 176 176 183 177 178 177 180 178 178 174 178 170 170 171 172 164 176 185 183 193 191 187 186 183 176 195 190 196 182 252 265 245 175 253 222 219 251 332 85 156 275 76 64 17 0 48 30 27 359 11 1 5 1 1 4 8 1 360 357 346 351 354 357 3 4 7 17 35 44 53 66 85 91 95 97
201 204 199 193 173 173 184 183 180 177 176 178 181 182 174 178 179 173 173 178 176 168 171 170 173 170 171 181 180 190 197 185 176 180 172 174 183 181 192 219 206 236 183 231 54 332 324 85 39 46 36 66 68 36 8 44 32 30 1 13 8 11 7 3 5 6 7 2 359 354 347 351 359 3 4 7 20 32 37 42 51 58 74 79 81
199 211 202 188 173 180 179 183 181 178 176 182 180 181 179 175 175 172 174 176 171 173 172 170 176 179 169 173 177 187 195 194 174 171 166 174 182 193 203 191 209 214 149 126 43 315 82 80 28 33 31 67 92 74 17 65 25 29 27 4 11 18 11 6 5 6 5 4 360 359 356 353 357 9 9 10 13 28 45 47 52 55 57 83 90
212 206 198 185 186 178 174 182 180 180 182 181 183 183 177 173 173 175 172 170 172 172 172 174 177 179 164 168 173 180 196 184 177 159 170 171 185 182 184 178 213 188 120 98 76 290 105 119 153 269 122 80 62 32 46 54 36 6 27 14 11 20 6 10 8 4 10 4 3 0 2 360 357 360 10 14 11 19 30 38 54 63 61 66 85
202 203 189 196 189 173 173 173 181 182 186 181 181 182 180 174 171 173 170 167 172 173 175 176 175 175 160 167 170 176 188 184 163 164 161 184 189 169 181 199 202 137 111 133 182 237 185 154 193 150 70 87 80 58 60 45 26 16 15 17 8 16 13 11 11 10 6 5 1 5 4 4 1 4 358 7 17 21 25 34 44 59 78 72 72
183 184 190 197 182 177 169 174 178 183 184 184 182 183 179 176 172 172 171 169 169 173 175 174 174 174 158 165 172 174 177 184 162 161 168 185 185 170 188 211 171 140 151 180 199 225 169 172 190 119 148 94 95 76 85 73 46 25 18 15 7 11 17 9 6 11 6 1 4 8 7 7 6 4 2 7 8 18 21 25 29 38 46 68 76
183 184 188 182 188 179 175 174 177 180 185 185 182 179 179 178 173 172 168 169 168 174 175 175 173 171 160 164 173 175 175 178 168 154 168 193 176 179 190 189 140 143 201 185 197 240 160 180 136 129 124 108 91 80 84 80 63 41 22 20 13 23 11 7 6 11 5 2 13 10 9 8 8 5 4 8 7 5 16 26 31 27 27 38 67
179 176 176 181 185 182 178 177 181 181 181 182 177 177 175 176 175 174 168 167 171 173 175 172 169 172 162 164 175 174 176 177 167 160 162 186 189 182 184 151 147 171 205 150 197 237 155 140 119 63 124 121 105 107 90 88 76 63 32 28 25 28 16 8 9 8 3 13 9 15 9 7 6 8 10 9 7 5 8 17 31 34 33 27 46
178 181 177 178 183 177 177 179 177 179 177 178 178 175 174 171 172 171 166 171 174 174 173 168 171 174 163 166 171 173 176 175 166 167 166 177 185 184 153 143 155 186 176 166 201 224 139 140 123 147 125 130 138 121 95 77 71 63 48 39 22 32 25 13 11 4 12 11 12 13 10 5 8 9 10 11 9 7 8 11 18 29 32 31 34
179 179 174 166 164 161 163 170 167 170 168 173 171 166 163 164 163 165 166 173 177 176 170 171 171 171 169 163 168 170 174 172 167 166 175 173 180 182 140 152 155 181 175 187 221 190 140 164 136 124 54 121 142 133 130 121 106 81 64 49 48 33 27 32 25 17 7 9 8 4 12 14 7 9 11 11 8 8 11 11 12 18 27 32 33
155 170 172 154 156 144 151 161 167 169 158 163 163 165 163 169 171 167 171 180 179 176 176 172 170 172 170 160 166 168 171 171 169 168 173 175 172 175 150 153 167 176 177 187 208 167 166 156 136 134 111 82 96 115 124 117 108 109 100 52 45 49 45 50 40 25 13 10 6 4 18 7 15 9 12 9 8 9 13 9 9 10 15 27 32
162 159 164 170 158 153 149 170 170 166 163 168 174 174 174 173 178 184 185 177 178 173 175 175 171 171 167 159 164 169 169 168 170 165 177 174 171 168 152 158 177 180 176 192 188 180 175 150 143 135 139 131 123 134 155 134 127 73 67 95 57 60 62 64 56 40 25 10 6 16 12 17 12 14 7 2 10 9 7 11 8 7 10 18 30
188 159 170 176 173 161 160 165 165 169 175 177 178 184 187 187 181 184 173 171 171 178 181 175 172 166 167 162 165 168 167 169 171 167 175 173 170 167 163 165 176 190 182 188 200 166 162 154 141 143 163 147 162 169 183 130 135 152 143 328 29 5 23 48 58 40 35 15 18 20 17 20 16 6 4 8 11 9 6 2 7 9 6 11 31
190 184 178 169 178 174 162 160 171 173 180 177 179 189 186 184 179 172 168 165 172 169 164 166 160 166 171 165 165 171 166 170 170 169 173 176 173 164 171 164 175 182 181 192 186 170 168 169 160 157 174 172 148 181 184 171 171 171 158 100 201 36 319 6 29 48 42 25 25 29 11 17 12 11 11 15 15 6 360 359 6 9 4 7 9
195 175 178 180 177 180 168 164 173 174 178 183 181 187 179 168 158 147 148 155 164 157 151 155 162 159 174 173 171 170 166 169 171 171 173 176 173 172 167 164 178 182 175 179 176 180 174 176 171 169 156 168 158 196 194 202 180 116 167 193 199 143 37 298 54 311 84 55 41 29 19 13 7 15 17 25 12 6 358 357 8 7 5 5 5
204 182 178 181 175 182 177 170 170 177 179 179 177 173 160 159 149 137 132 121 113 148 156 182 184 179 167 178 177 170 169 170 171 174 173 177 175 173 168 171 170 186 176 173 177 185 184 184 180 181 172 164 180 159 225 199 198 167 149 314 92 93 209 201 109 310 355 17 8 40 24 17 14 13 25 22 12 14 4 3 2 9 9 5 5
195 198 168 180 160 175 172 171 163 170 173 176 173 168 172 169 162 162 167 165 169 173 186 189 184 185 185 167 166 173 169 169 173 175 177 173 177 178 171 168 172 181 184 177 175 177 189 186 192 189 185 175 164 149 192 242 202 177 171 158 166 176 167 202 104 256 339 143 107 40 50 32 20 16 24 28 18 6 8 8 2 8 8 6 1
193 139 114 154 143 159 160 165 158 160 161 166 171 166 174 180 182 182 181 180 181 196 183 165 177 175 153 171 173 172 173 172 176 175 178 178 175 177 176 173 173 177 181 177 181 185 189 191 186 191 197 190 160 170 177 199 230 242 175 166 158 199 153 125 213 111 27 319 2 1 12 14 38 35 28 28 22 14 1 6 4 1 2 4 2
113 121 144 179 168 174 164 166 162 159 168 166 178 174 177 182 183 184 188 190 190 182 175 169 156 156 165 170 170 178 176 177 174 177 178 177 175 178 177 177 175 182 177 189 188 184 178 189 185 190 199 191 196 174 181 171 174 232 185 171 191 268 249 136 159 160 157 161 279 336 11 348 17 61 62 48 33 22 3 358 0 0 354 0 2
130 144 158 175 181 181 173 166 177 161 169 166 177 188 178 185 184 183 188 198 178 168 159 155 161 163 169 168 173 179 179 181 177 175 178 178 176 177 178 181 182 186 181 189 192 183 181 180 187 189 200 205 193 196 172 180 174 192 153 208 178 194 222 222 161 128 147 111 236 182 245 325 353 31 95 89 68 50 21 351 344 358 358 356 360
121 128 138 146 168 167 156 161 180 163 161 163 175 191 187 182 184 191 188 190 178 166 163 168 167 166 174 176 175 176 180 182 183 178 178 179 178 175 178 185 188 189 185 188 192 190 187 184 189 191 194 203 204 192 202 182 183 181 178 169 178 186 167 223 243 212 246 140 166 216 185 170 195 264 139 102 91 75 20 356 357 9 4 353 354
128 151 136 150 159 157 167 164 189 171 160 173 174 188 195 191 189 191 191 189 184 167 165 172 167 171 179 180 178 179 178 185 181 186 182 179 180 178 181 187 187 189 187 185 194 195 196 188 188 188 193 199 208 203 197 208 184 183 178 173 185 183 183 178 196 187 173 169 120 171 156 184 180 169 248 160 141 141 123 356 23 357 354 341 337